Regional Weather Roundup
Issued by NWS Sterling, VA

Home | Current Version | Previous Version | Text Only | Print | Product List | Glossary On
Versions: 1 2 3 4 5 6 7 8 9 10 11 12 13 14 15 16 17 18 19 20 21 22 23 24 25 26 27
000
ASUS41 KLWX 281410
RWRLWX

REGIONAL WEATHER ROUNDUP
NATIONAL WEATHER SERVICE BALTIMORE MD/WASHINGTON DC
1000 AM EDT THU JUL 28 2016

Note: "FAIR" indicates few or no clouds below 12,000 feet
with no significant weather and/or obstructions to visibility.
 TC=TEMPERATURE CELSIUS

 * =Non NWS site. Station does not report precipitation (e.g. rain,
    snow, etc.), thunder, or fog.

DCZ001-MDZ009-015-VAZ040>042-051-053>054-281500-
WASHINGTON METRO

CITY           SKY/WX    TMP DP  RH WIND       PRES   REMARKS
WASHINGTON NAT PTSUNNY   87  74  64 S5        29.89F HX  95
DULLES         PTSUNNY   85  70  60 CALM      29.91F
ANDREWS AFB    MOSUNNY   84  75  72 VRB3      29.89F HX  92
FT BELVOIR     FAIR      84  75  73 SE5       29.89F HX  92
QUANTICO       CLOUDY    82  74  76 CALM      29.90
COLLEGE PARK*  FAIR      84  72  65 CALM      29.89F
LEESBURG*      FAIR      86  73  66 CALM      29.92S HX  93
MANASSAS*      SUNNY     82  72  69 CALM      29.90F
GAITHERSBURG*  CLOUDY    82  72  69 CALM      29.95F

$$

MDZ006>007-011-014-281500-
BALTIMORE METRO

CITY           SKY/WX    TMP DP  RH WIND       PRES   REMARKS
BWI AIRPORT    PTSUNNY   87  72  60 SE6       29.89F HX  93
MD SCIENCE CTR   N/A     88  73  61 MISG      29.89F HX  95
MARTIN STATE   PTSUNNY   88  82  84 SE6       29.91F HX 108
ANNAPOLIS        N/A    N/A N/A N/A MISG      29.89F
FORT MEADE*    MOSUNNY   82  73  74 CALM      29.92F

$$

MDZ012-015-019>023-281500-
MARYLAND EASTERN SHORE

CITY           SKY/WX    TMP DP  RH WIND       PRES   REMARKS
OCEAN CITY     CLOUDY    82  78  88 S3        29.92S HX  91
SALISBURY      SUNNY     87  78  74 SE6       29.91S HX 100
CAMBRIDGE*     MOSUNNY   86  77  74 SE5       29.89F HX  97
EASTON*        MOSUNNY   90  81  74 S6        29.93F HX 108

$$

MDZ017>025-281500-
SOUTHERN MARYLAND

CITY           SKY/WX    TMP DP  RH WIND       PRES   REMARKS
PATUXENT RIVER PTSUNNY   87  75  67 E7        29.89F HX  96
ST INIGOES     SUNNY     88  74  63 CALM      29.89F HX  96
LEONARDTOWN*     N/A    N/A N/A N/A MISG        N/A

$$

MDZ003>005-281500-
NORTH CENTRAL MARYLAND

CITY           SKY/WX    TMP DP  RH WIND       PRES   REMARKS
FREDERICK*     SUNNY     82  73  74 CALM      29.94S
HAGERSTOWN APT CLOUDY    81  71  71 CALM      29.93F

$$

MDZ501>502-281500-
WESTERN MARYLAND

CITY           SKY/WX    TMP DP  RH WIND       PRES   REMARKS
OAKLAND*       CLOUDY    70  68  94 SW3       30.05F FOG
CUMBERLAND*    CLOUDY    77  70  78 CALM      29.97F

$$

VAZ025>031-281500-
SHENANDOAH VALLEY

CITY           SKY/WX    TMP DP  RH WIND       PRES   REMARKS
WINCHESTER*    FAIR      81  72  74 CALM      29.93F
FRONT ROYAL*   PTSUNNY   77  72  83 SW3       29.92F
LURAY*         NOT AVBL
NEW MARKET*    FAIR     N/A N/A N/A W3        29.94R
STAUNTON*      FAIR      76  73  88 SW5       29.99S
WAYNESBORO*    FAIR      77  72  82 CALM      29.98F

$$

WVZ021-048>050-054>055-281500-
EASTERN WEST VIRGINIA PANHANDLE

CITY           SKY/WX    TMP DP  RH WIND       PRES   REMARKS
MARTINSBURG    FAIR      82  71  69 VRB3      29.92F
PETERSBURG*    FAIR      80  72  76 CALM      29.95R

$$

VAZ036>039-050-281500-
CENTRAL FOOTHILLS

CITY           SKY/WX    TMP DP  RH WIND       PRES   REMARKS
CHARLOTTESVILL FAIR      80  74  81 CALM      29.93S
CULPEPER*      FAIR      81  76  84 CALM      29.92S
ORANGE*          N/A     79  77  94 CALM      29.94S
GORDONSVILLE*  FAIR      79  75  89 CALM      29.92S
WARRENTON*     FAIR      82  70  65 CALM      29.91S

$$

VAZ055>057-281500-
NORTH AND CENTRAL PIEDMONT

CITY           SKY/WX    TMP DP  RH WIND       PRES   REMARKS
FREDERICKSBRG* FAIR      82  74  78 S3        29.90S
STAFFORD*      FAIR      81  73  76 CALM      29.94F

$$

NCZ024-NYZ072-PAZ021-071-VAZ022-071-281500-
OTHER REGIONAL OBSERVATIONS

CITY           SKY/WX    TMP DP  RH WIND       PRES   REMARKS
NEW YORK CITY  MOSUNNY   85  63  47 W3        29.95S
PHILADELPHIA   PTSUNNY   87  73  62 SE5       29.92F HX  94
PITTSBURGH     CLOUDY    75  69  81 S3        29.94F
ROANOKE        FAIR      82  71  69 W6        29.99F
RICHMOND       PTSUNNY   83  74  74 S6        29.90F
RALEIGH        MOSUNNY   86  74  67 SW5       29.95S HX  94

$$

ANZ530>537-281500-
MARINE OBSERVATIONS

STATION/POSITION TIME  TEMP    WIND        PRES
                       AIR SEA DIR/SP/G
                 (UTC) (F)     (DEG/KT/KT) (MB)
THOMAS PT LIGHT  1400   82 84  170/  6/  7 1013.7F
BALT KEY BRIDGE  1336   84     110/  4/  5 1012.2F
COVE POINT       1336   83     160/  3/  4 1013.1F
LEWISETTA        1336   84 87   90/  3/  3 1012.1F
SOLOMONS ISLAND  1336   84 86  100/  3/  4   N/A
PINEY POINT      1348             CALM       N/A

$$





USA.gov is the U.S. government's official web portal to all federal, state and local government web resources and services.